Portada
METAR-TAF:

METAR-TAF

Aeropuertos :

Aeropuerto Yariguíes

Barrancabermeja, Colombia

latitud: 07-01N, longitud: 073-48W, altitud: 126 m

Observación

El informe se hizo hace 1 hora y 28 minutos, a las 23:00 UTC
Viento 3 kt del este-sureste
Temperatura 29°C
Humedad 79%
Presión 1008 hPa
Visibilidad 10 km o más
Nubes dispersas a una altura de 1500 ft
Cielo nuboso a una altura de 20000 ft

METAR: SKEJ 242300Z 12003KT 9999 SCT015 BKN200 29/25 A2976

Hora: 19:28 (00:28 UTC)


TAF: falta

Observaciones y pronósticos meteorológicos de más de 4000 aeropuertos (mensajes METAR y TAF).

Los puntos amarillos y rojos representan las estaciones disponibles.

Ponga el ratón en el punto deseado para ver el nombre de la estación.

Haga clic para ver las observaciones y los pronósticos meteorológicos.

Para cambiar el mapa : haga clic en los botones verdes con una cruz de color negro para hacer un zoom, en el botón verde con un guión para alejar o en las flechas verdes para mapas adyacentes.


METAR-TAF: